Regional Weather Roundup
Issued by NWS Upton, NY

Current Version | Previous Version | Text Only | Print | Product List | Glossary On
Versions: 1 2 3 4 5 6 7 8 9 10 11 12 13 14 15 16 17 18 19 20 21 22 23 24 25 26 27 28 29 30 31 32 33 34 35 36 37 38 39 40 41 42 43 44 45 46 47 48 49 50
796
ASUS41 KOKX 201309
RWROKX

REGIONAL WEATHER ROUNDUP
NATIONAL WEATHER SERVICE NEW YORK NY
900 AM EDT THU JUL 20 2017

NOTE: "FAIR" INDICATES FEW OR NO CLOUDS BELOW 12,000 FEET WITH NO
SIGNIFICANT WEATHER AND/OR OBSTRUCTIONS TO VISIBILITY.

NYZ071-072-176-178-NJZ106-104-201400-
NEW YORK CITY METRO AREA

CITY           SKY/WX    TMP DP  RH WIND       PRES   REMARKS
Central Park   MOSUNNY   82  71  69 CALM      30.01S
Bronx Bot Gard   N/A     84  68  58 NE3       30.01R
LaGuardia APRT PTSUNNY   83  71  67 NE5       29.97S
Kennedy INTL   PTSUNNY   83  76  79 SW7       29.99S HX  91
Breezy Point     N/A     77 N/A N/A W6          N/A
Newark/Liberty PTSUNNY   83  71  67 W5        29.98R
Teterboro      MOSUNNY   84  66  54 CALM      29.97S
$$

NYZ177-179-078>081-201400-
LONG ISLAND NEW YORK

CITY           SKY/WX    TMP DP  RH WIND       PRES   REMARKS
Jones Beach      N/A     77 N/A N/A W5          N/A
Matinecock PT    N/A     75 N/A N/A NE5         N/A
Farmingdale    MOSUNNY   84  71  65 CALM      29.98F
MacArthur/ISP  CLOUDY    84  70  62 SE3       29.98S
Shirley        CLOUDY    84  72  67 CALM      29.99S
Mt Sinai Harb    N/A    N/A N/A N/A N1          N/A
Westhampton    CLOUDY    83  67  58 VRB3      30.00S
East Hampton   FAIR      82  71  70 CALM      29.98S
Montauk          N/A     79  73  82 NW5       29.99S
$$

NYZ052-065-067-201400-
HUDSON VALLEY

CITY           SKY/WX    TMP DP  RH WIND       PRES   REMARKS
White Plains   SUNNY     84  63  48 CALM      29.99S
Larchmont Harb   N/A     73 N/A N/A N3          N/A
Croton O-T Hud   N/A     77 N/A N/A MISG        N/A
Newburgh       MOSUNNY   77  72  83 CALM      30.02S
Montgomery     MOSUNNY   80  71  74 VRB3      29.99F
Poughkeepsie   MOSUNNY   78  68  71 CALM      29.98F
Albany         PTSUNNY   76  66  71 SE5       29.97S
$$

NJZ001-105-106-008-010-013-015-019>022-104-201400-
NEW JERSEY

CITY           SKY/WX    TMP DP  RH WIND       PRES   REMARKS
Newark/Liberty PTSUNNY   83  71  67 W5        29.98R
Teterboro      MOSUNNY   84  66  54 CALM      29.97S
Caldwell       MOSUNNY   79  70  74 CALM      30.00S
Somerville     SUNNY     82  73  74 CALM      29.98F
Linden         FAIR      82  70  67 W6        29.99S
Perth Amboy      N/A     81 N/A N/A W6          N/A
Sussex         PTSUNNY   75  72  90 CALM      30.02R
Andover          N/A     78  71  79 CALM      30.03R
Trenton        SUNNY     83  72  69 N6        29.99S
Millville      SUNNY     84  79  85 W6        30.00S HX  96
Atlantic City  SUNNY     86  74  67 W7        30.00F HX  94
Wrightstown    SUNNY     84  74  71 NW6       29.97F HX  91
Toms River     SUNNY     85  74  69 VRB5      30.00F HX  92
Belmar         SUNNY     83  74  74 W7        30.00F
$$

PAZ047>061-062-071-201400-
EASTERN PENNSYLVANIA

CITY           SKY/WX    TMP DP  RH WIND       PRES   REMARKS
Philadelphia   PTSUNNY   84  72  67 VRB5      30.00S
Allentown      SUNNY     81  70  69 W5        30.01S
Scranton       CLOUDY    74  70  87 W5        30.05S FOG
$$

CTZ002-004>006-009-010-012-RIZ004-006-007-MAZ004-011-015-201400-
SOUTHERN NEW ENGLAND
 IN CT

CITY           SKY/WX    TMP DP  RH WIND       PRES   REMARKS
Bradley INTL   PTSUNNY   81  67  62 S5        29.97F
Hartford       MOSUNNY   80  69  69 S6        29.97F
Danbury        MOSUNNY   79  68  69 CALM      30.01F
Wtrbury/Oxford PTSUNNY   79  64  61 CALM      30.02F
Bridgeport     MOSUNNY   82  67  60 S5        29.98S
Meriden        MOSUNNY   78  68  71 CALM      29.98F
New Haven      MOSUNNY   81  68  64 W3        29.98S
Chester        FAIR      82  64  54 CALM      30.00S
Groton         SUNNY     77  69  76 S5        29.97S
Wilimantic     MOSUNNY   79  69  71 CALM      29.99S

 IN RI

CITY           SKY/WX    TMP DP  RH WIND       PRES   REMARKS
Providence     PTSUNNY   83  68  60 W6        29.97F
Block Island   CLOUDY    81  67  62 W5        29.99S
Westerly       SUNNY     82  71  69 CALM      29.98F
 IN MA

CITY           SKY/WX    TMP DP  RH WIND       PRES   REMARKS
Boston         MOSUNNY   83  65  54 W6        29.95F
Worcester      SUNNY     77  64  64 W9        30.00F
Westfield      MOSUNNY   77  67  71 S3        29.97F
Provincetown   SUNNY     79  67  66 W6        29.95F
Nantucket      SUNNY     78  74  87 W5        29.96F
$$

ANZ330-335-338-340-345-350-353-355-201400-
COASTAL MARINE OBSERVATIONS


STATION/POSITION TIME  SKY/WX   TEMP    WIND        PRES    VSBY  WAVE
                                AIR SEA DIR/SP/G                  HT/PER
                 (UTC)          (F)     (DEG/KT/KT) (MB)    (MI)  (FT/S)
NY HARB ENTRANCE 1150            76 75  230/  4/  4 1015.3          2/15
20 S FIRE ISLAND 1250            76 75  260/  8/  8 1014.7          3/16
GREAT SOUTH BAY  1230            78 81  240/  2/  4   N/A
23 SSW MONTAUK P 1150            75 75              1015.6          3/ 5
15 E BARNEGAT LI 1230               78                N/A           3/15
HUDSON CANYON    1150            79 78  240/ 10/ 12 1015.2          3/ 5
KINGS POINT      1230            76 72   40/  3/  4 1015.0
EXECUTION ROCKS  1230            78      CALM  /  2   N/A
CENTRAL LI SOUND 1230            75      CALM  /  2   N/A           0
EASTERN LI SOUND NOT AVBL
ROBBINS REEF     1230                   250/  5/  6 1015.9
$$


>>>>>>>>>>>>>>>>>>>>>>>>>>>> KEY <<<<<<<<<<<<<<<<<<<<<<<<<<<
>                                                          <
>     SKY/WX - Sky Condition/Present Weather               <
>     TMP    - Temperature in Fahrenheit                   <
>     DP     - Dew Point in Fahrenheit                     <
>     RH     - Relative Humidity in Percent                <
>     WIND   - Direction (from) and Speed in MPH           <
>     PRES   - Mean Sea Level Pressure (inches of Hg)      <
>     WCI    - Wind Chill Index                            <
>     VSB    - VISIBILITY IN MILES                         <
>     HX     - HEAT INDEX                                  <
>     TC     - TEMPERATURE IN CELSIUS                      <
>     VRB    - VARIABLE WIND DIRECTION                     <
>                                                          <
>>>>>>>>>>>>>>>>>>>>>>>>>>>> KEY <<<<<<<<<<<<<<<<<<<<<<<<<<<




USA.gov is the U.S. government's official web portal to all federal, state and local government web resources and services.